Location: Gälforsberget
(66.6500°N, 22.4167°E)
Time: 01:26:41
(UTC+00:00)

Cosmos 1821 Rocket - Pass Details

Date: 11 April 2026
Orbit: 945 x 1003 km, 82.9° (Epoch: 20 May)

Event Time Altitude Azimuth Distance (km) Brightness Sun altitude
Rises 20:22:34 0° 196° (SSW) 3,665 6.6 -11.3°
Reaches altitude 10° 20:25:03 10° 197° (SSW) 2,729 6.0 -11.4°
Maximum altitude 20:31:20 87° 288° (WNW) 1,000 4.1 -11.7°
Drops below altitude 10° 20:37:45 10° 18° (NNE) 2,780 7.0 -12.0°
Sets 20:40:19 0° 19° (NNE) 3,737 7.7 -12.1°
